FW7074 Weather Reports


time (UTC)temp
F
wind
direction
speed
knots
gust
knots
rain 1hr
in
rain 24hr
in
rain mn
in
humidity
%
barometer
mb
20260505200403 77 129 2.6 4.3 0.00 0.00 0.00 57 1016.9
20260505200302 77 205 0.0 4.3 0.00 0.00 0.00 57 1017.0
20260505200202 77 278 0.0 7.8 0.00 0.00 0.00 56 1017.0
20260505200006 77 206 1.7 7.8 0.00 0.00 0.00 56 1016.9
20260505195903 77 203 0.0 7.8 0.00 0.00 0.00 56 1017.0
20260505195802 77 206 0.0 7.8 0.00 0.00 0.00 55 1017.0
20260505195702 77 149 0.0 7.8 0.00 0.00 0.00 56 1017.1
20260505195603 77 174 0.9 7.8 0.00 0.00 0.00 56 1017.1
20260505195502 77 183 0.9 7.8 0.00 0.00 0.00 56 1017.1
20260505195404 77 246 1.7 7.8 0.00 0.00 0.00 55 1017.1
20260505195306 77 127 0.0 7.0 0.00 0.00 0.00 57 1017.1
20260505195202 77 220 0.0 7.0 0.00 0.00 0.00 57 1017.3
20260505195102 77 174 0.9 7.0 0.00 0.00 0.00 58 1017.3
20260505195002 77 246 1.7 7.0 0.00 0.00 0.00 56 1017.3
20260505194902 77 148 2.6 7.0 0.00 0.00 0.00 57 1017.3
20260505194803 77 196 1.7 7.0 0.00 0.00 0.00 57 1017.4
20260505194703 77 158 0.0 4.3 0.00 0.00 0.00 59 1017.4
20260505194502 76 221 2.6 4.3 0.00 0.00 0.00 57 1017.5
20260505194402 76 149 0.9 4.3 0.00 0.00 0.00 58 1017.5
20260505194303 76 217 0.0 4.3 0.00 0.00 0.00 56 1017.5
20260505194202 76 222 0.0 4.3 0.00 0.00 0.00 56 1017.5
20260505194102 76 256 0.0 4.3 0.00 0.00 0.00 55 1017.6
20260505194003 76 191 0.0 4.3 0.00 0.00 0.00 54 1017.6
20260505193902 76 153 4.3 4.3 0.00 0.00 0.00 57 1017.6
20260505193802 76 210 0.9 3.5 0.00 0.00 0.00 56 1017.6
20260505193702 76 129 0.9 3.5 0.00 0.00 0.00 57 1017.6
20260505193503 76 41 0.0 3.5 0.00 0.00 0.00 56 1017.6
20260505193303 77 210 0.0 3.5 0.00 0.00 0.00 57 1017.6
20260505193203 77 35 1.7 3.5 0.00 0.00 0.00 57 1017.6
20260505193102 77 162 0.9 6.1 0.00 0.00 0.00 55 1017.7
20260505193002 77 169 0.0 6.1 0.00 0.00 0.00 58 1017.7
20260505192902 77 131 0.0 6.1 0.00 0.00 0.00 56 1017.6
20260505192802 77 93 0.0 6.1 0.00 0.00 0.00 55 1017.7
20260505192702 77 231 2.6 6.1 0.00 0.00 0.00 57 1017.6
20260505192603 77 221 0.0 6.1 0.00 0.00 0.00 56 1017.7
20260505192505 77 258 0.0 6.1 0.00 0.00 0.00 56 1017.7
20260505192402 77 262 0.0 6.1 0.00 0.00 0.00 56 1017.7
20260505192305 77 158 3.5 6.1 0.00 0.00 0.00 55 1017.7
20260505192202 78 125 2.6 6.1 0.00 0.00 0.00 57 1017.7
20260505192103 77 193 1.7 7.0 0.00 0.00 0.00 58 1017.6
20260505192002 77 175 0.0 7.0 0.00 0.00 0.00 58 1017.7
20260505191902 77 114 0.9 7.0 0.00 0.00 0.00 57 1017.8
20260505191802 77 54 0.0 7.0 0.00 0.00 0.00 56 1017.7
20260505191702 77 316 0.0 7.0 0.00 0.00 0.00 56 1017.8
20260505191506 77 189 2.6 7.0 0.00 0.00 0.00 55 1017.7
20260505191403 77 40 3.5 7.0 0.00 0.00 0.00 56 1017.7
20260505191303 77 132 0.9 7.0 0.00 0.00 0.00 56 1017.7
20260505191104 77 228 2.6 7.0 0.00 0.00 0.00 55 1017.7
20260505191002 77 133 3.5 7.0 0.00 0.00 0.00 55 1017.7
20260505190902 77 14 0.9 7.0 0.00 0.00 0.00 56 1017.8
20260505190802 77 247 0.9 7.0 0.00 0.00 0.00 56 1017.7
20260505190702 77 180 0.9 7.0 0.00 0.00 0.00 55 1017.9
20260505190503 77 248 1.7 7.0 0.00 0.00 0.00 55 1017.8
20260505190402 77 75 1.7 7.0 0.00 0.00 0.00 55 1017.8
20260505190302 77 170 0.9 7.0 0.00 0.00 0.00 55 1017.8
20260505190202 78 153 6.1 7.0 0.00 0.00 0.00 53 1017.8
20260505190005 78 152 5.2 5.2 0.00 0.00 0.00 56 1017.7
20260505185902 78 188 0.0 4.3 0.00 0.00 0.00 55 1017.8
20260505185802 77 204 0.9 4.3 0.00 0.00 0.00 57 1017.7
20260505185703 77 244 0.0 4.3 0.00 0.00 0.00 55 1017.7
20260505185502 77 252 0.0 4.3 0.00 0.00 0.00 57 1017.7
20260505185402 77 149 2.6 4.3 0.00 0.00 0.00 55 1017.6
20260505185203 77 243 1.7 6.1 0.00 0.00 0.00 56 1017.7
20260505185103 77 250 0.0 6.1 0.00 0.00 0.00 57 1017.6
20260505184903 77 131 1.7 6.1 0.00 0.00 0.00 56 1017.7
20260505184802 77 191 2.6 6.1 0.00 0.00 0.00 55 1017.7
20260505184703 77 230 0.0 6.1 0.00 0.00 0.00 55 1017.6
20260505184602 77 224 1.7 6.1 0.00 0.00 0.00 55 1017.7
20260505184502 77 127 0.9 6.1 0.00 0.00 0.00 55 1017.7
20260505184402 78 211 2.6 4.3 0.00 0.00 0.00 55 1017.7
20260505184303 78 146 0.0 4.3 0.00 0.00 0.00 58 1017.8
20260505184202 78 245 0.0 4.3 0.00 0.00 0.00 56 1017.8
20260505184102 78 205 0.9 4.3 0.00 0.00 0.00 56 1017.9
20260505184002 78 222 1.7 4.3 0.00 0.00 0.00 56 1017.8
20260505183902 78 231 0.9 4.3 0.00 0.00 0.00 56 1017.7
20260505183702 78 181 2.6 5.2 0.00 0.00 0.00 57 1017.9
20260505183602 78 166 0.0 5.2 0.00 0.00 0.00 59 1018.0
20260505183402 78 91 0.0 5.2 0.00 0.00 0.00 56 1017.9
20260505183303 78 172 0.0 5.2 0.00 0.00 0.00 57 1017.9
20260505183202 78 242 0.0 6.1 0.00 0.00 0.00 57 1017.9
20260505183003 77 139 0.0 6.1 0.00 0.00 0.00 56 1018.0
20260505182902 77 248 0.9 6.1 0.00 0.00 0.00 56 1018.0
20260505182702 77 158 0.0 6.1 0.00 0.00 0.00 55 1018.0
20260505182602 78 68 0.9 6.1 0.00 0.00 0.00 55 1018.1
20260505182403 78 231 1.7 7.0 0.00 0.00 0.00 55 1018.2
20260505182305 78 135 1.7 7.0 0.00 0.00 0.00 57 1018.1
20260505182202 78 37 0.0 7.0 0.00 0.00 0.00 56 1018.2
20260505182102 78 157 0.0 7.0 0.00 0.00 0.00 56 1018.1
20260505182002 78 32 0.0 7.0 0.00 0.00 0.00 58 1018.1
20260505181902 78 88 0.9 7.0 0.00 0.00 0.00 57 1018.1
20260505181802 78 255 0.0 7.0 0.00 0.00 0.00 57 1018.1
20260505181702 78 250 0.0 7.0 0.00 0.00 0.00 56 1018.1
20260505181604 77 255 3.5 6.1 0.00 0.00 0.00 56 1018.1
20260505181502 77 256 0.0 5.2 0.00 0.00 0.00 59 1018.1
20260505181403 77 357 0.9 5.2 0.00 0.00 0.00 58 1018.1
20260505181302 77 293 0.0 5.2 0.00 0.00 0.00 54 1018.1
20260505181203 77 242 0.0 5.2 0.00 0.00 0.00 55 1018.1
20260505181102 77 244 0.0 5.2 0.00 0.00 0.00 55 1018.0
20260505181003 78 101 3.5 5.2 0.00 0.00 0.00 56 1018.1
20260505180902 78 231 0.9 5.2 0.00 0.00 0.00 56 1018.1
20260505180803 78 60 0.0 5.2 0.00 0.00 0.00 57 1018.1
20260505180702 78 56 0.9 5.2 0.00 0.00 0.00 57 1018.1
20260505180602 78 238 0.9 7.8 0.00 0.00 0.00 58 1018.2
20260505180502 78 224 0.9 7.8 0.00 0.00 0.00 57 1018.1
20260505180402 78 201 0.0 7.8 0.00 0.00 0.00 56 1018.1
20260505180303 78 73 3.5 7.8 0.00 0.00 0.00 57 1018.1
20260505180005 77 266 0.0 7.8 0.00 0.00 0.00 56 1018.0
20260505175802 77 146 5.2 7.8 0.00 0.00 0.00 56 1018.1
20260505175702 78 117 5.2 7.0 0.00 0.00 0.00 55 1018.1
20260505175605 78 157 4.3 7.0 0.00 0.00 0.00 56 1018.2
20260505175502 78 120 5.2 7.0 0.00 0.00 0.00 56 1018.2
20260505175403 78 111 5.2 5.2 0.00 0.00 0.00 58 1018.2
20260505175305 78 57 0.0 4.3 0.00 0.00 0.00 57 1018.2
20260505175202 78 230 0.0 4.3 0.00 0.00 0.00 56 1018.2
20260505175002 78 270 0.0 4.3 0.00 0.00 0.00 56 1018.1
20260505174903 78 37 1.7 4.3 0.00 0.00 0.00 56 1018.2
20260505174803 78 345 0.0 3.5 0.00 0.00 0.00 55 1018.1
20260505174702 78 103 0.0 2.6 0.00 0.00 0.00 55 1018.2
20260505174603 78 206 0.0 3.5 0.00 0.00 0.00 55 1018.1
20260505174402 78 15 0.0 7.8 0.00 0.00 0.00 57 1018.2
20260505174202 78 141 0.9 7.8 0.00 0.00 0.00 56 1018.1
20260505174102 78 50 0.0 7.8 0.00 0.00 0.00 57 1018.2
20260505174002 78 119 0.0 7.8 0.00 0.00 0.00 56 1018.2
20260505173902 78 129 2.6 7.8 0.00 0.00 0.00 56 1018.2
20260505173802 78 264 0.9 7.8 0.00 0.00 0.00 55 1018.2
20260505173702 78 213 1.7 7.8 0.00 0.00 0.00 54 1018.2
20260505173602 78 150 6.1 6.1 0.00 0.00 0.00 57 1018.2
20260505173502 78 233 0.0 3.5 0.00 0.00 0.00 58 1018.3
20260505173403 78 174 0.9 3.5 0.00 0.00 0.00 57 1018.3
20260505173302 78 79 0.0 3.5 0.00 0.00 0.00 58 1018.3
20260505173202 77 280 0.0 3.5 0.00 0.00 0.00 58 1018.3
20260505173102 77 115 0.0 3.5 0.00 0.00 0.00 59 1018.4
20260505173002 77 285 0.0 3.5 0.00 0.00 0.00 57 1018.3
20260505172703 77 57 0.0 3.5 0.00 0.00 0.00 56 1018.4
20260505172605 77 148 0.0 3.5 0.00 0.00 0.00 56 1018.3
20260505172403 77 225 0.0 3.5 0.00 0.00 0.00 57 1018.3
20260505172305 77 56 1.7 3.5 0.00 0.00 0.00 56 1018.3
20260505172202 77 82 0.9 3.5 0.00 0.00 0.00 56 1018.3
20260505172103 77 209 0.0 3.5 0.00 0.00 0.00 56 1018.3
20260505172002 77 221 0.0 3.5 0.00 0.00 0.00 56 1018.4
20260505171902 77 221 0.0 3.5 0.00 0.00 0.00 56 1018.4
20260505171803 77 116 0.9 4.3 0.00 0.00 0.00 55 1018.4
20260505171602 78 185 0.0 4.3 0.00 0.00 0.00 55 1018.4
20260505171503 78 286 0.0 4.3 0.00 0.00 0.00 55 1018.4
20260505171402 78 282 0.0 4.3 0.00 0.00 0.00 54 1018.5
20260505171203 78 158 0.0 4.3 0.00 0.00 0.00 56 1018.3
20260505171003 78 170 1.7 4.3 0.00 0.00 0.00 55 1018.4
20260505170902 78 53 0.0 3.5 0.00 0.00 0.00 56 1018.4
20260505170802 78 30 0.0 3.5 0.00 0.00 0.00 56 1018.4
20260505170702 78 105 0.0 4.3 0.00 0.00 0.00 54 1018.5
20260505170603 78 56 0.9 4.3 0.00 0.00 0.00 55 1018.4
20260505170502 78 321 0.9 4.3 0.00 0.00 0.00 56 1018.5
20260505170403 78 30 0.0 4.3 0.00 0.00 0.00 57 1018.5
20260505170202 77 231 0.0 4.3 0.00 0.00 0.00 57 1018.5
20260505170005 77 318 1.7 4.3 0.00 0.00 0.00 58 1018.5
20260505165902 77 253 1.7 4.3 0.00 0.00 0.00 55 1018.5
20260505165803 77 131 1.7 5.2 0.00 0.00 0.00 55 1018.5
20260505165602 78 214 1.7 7.0 0.00 0.00 0.00 55 1018.5
20260505165503 78 191 0.0 7.0 0.00 0.00 0.00 54 1018.5
20260505165402 78 200 2.6 7.0 0.00 0.00 0.00 55 1018.5
20260505164802 78 21 1.7 3.5 0.00 0.00 0.00 57 1018.5
20260505164702 78 83 0.0 3.5 0.00 0.00 0.00 57 1018.6
20260505164603 78 231 0.0 3.5 0.00 0.00 0.00 55 1018.6
20260505164502 78 200 0.0 3.5 0.00 0.00 0.00 57 1018.6
20260505164402 78 169 0.0 3.5 0.00 0.00 0.00 57 1018.6
20260505164202 78 85 1.7 2.6 0.00 0.00 0.00 55 1018.6
20260505164002 78 44 0.0 2.6 0.00 0.00 0.00 56 1018.6
20260505163702 78 82 0.0 4.3 0.00 0.00 0.00 55 1018.6
20260505163502 78 227 0.0 4.3 0.00 0.00 0.00 56 1018.6
20260505163302 78 246 0.0 4.3 0.00 0.00 0.00 57 1018.6
20260505163204 77 274 1.7 4.3 0.00 0.00 0.00 59 1018.6
20260505163102 77 226 0.0 4.3 0.00 0.00 0.00 59 1018.7
20260505163002 77 147 0.0 4.3 0.00 0.00 0.00 56 1018.7
20260505162903 77 203 0.0 4.3 0.00 0.00 0.00 55 1018.7
20260505162802 77 195 1.7 4.3 0.00 0.00 0.00 57 1018.7
20260505162702 77 58 0.0 4.3 0.00 0.00 0.00 55 1018.8
20260505162602 77 61 0.9 4.3 0.00 0.00 0.00 56 1018.7
20260505162305 78 98 1.7 4.3 0.00 0.00 0.00 56 1018.8
20260505162202 77 251 0.0 4.3 0.00 0.00 0.00 58 1018.8
20260505162102 77 248 0.0 4.3 0.00 0.00 0.00 60 1018.8
20260505162003 77 246 0.0 4.3 0.00 0.00 0.00 59 1018.8
20260505161902 77 61 0.0 4.3 0.00 0.00 0.00 57 1018.8
20260505161805 77 61 0.0 4.3 0.00 0.00 0.00 56 1018.8
20260505161702 77 262 0.0 4.3 0.00 0.00 0.00 56 1018.8
20260505161602 77 35 1.7 4.3 0.00 0.00 0.00 56 1018.8
20260505161502 77 183 0.0 2.6 0.00 0.00 0.00 56 1018.9
20260505161302 77 108 1.7 2.6 0.00 0.00 0.00 55 1018.8
20260505161102 77 193 0.0 2.6 0.00 0.00 0.00 56 1018.9
20260505161002 77 233 0.0 2.6 0.00 0.00 0.00 56 1018.9
20260505160802 77 320 0.0 3.5 0.00 0.00 0.00 56 1018.9
20260505160702 77 246 0.0 3.5 0.00 0.00 0.00 57 1019.0
20260505160602 76 86 0.9 3.5 0.00 0.00 0.00 57 1019.0
20260505160503 76 68 0.0 3.5 0.00 0.00 0.00 57 1018.9
20260505160302 76 51 1.7 3.5 0.00 0.00 0.00 56 1019.0
20260505160202 76 89 0.0 4.3 0.00 0.00 0.00 57 1019.0
20260505153302 76 137 0.9 3.5 0.00 0.00 0.00 57 1018.9
20260505153202 76 238 0.0 3.5 0.00 0.00 0.00 56 1018.8
20260505153102 77 246 0.0 3.5 0.00 0.00 0.00 56 1018.9
20260505153002 77 56 1.7 3.5 0.00 0.00 0.00 56 1018.9
20260505152902 77 246 0.9 2.6 0.00 0.00 0.00 57 1018.9
20260505152809 77 217 0.0 3.5 0.00 0.00 0.00 58 1018.8
20260505152503 77 63 0.0 3.5 0.00 0.00 0.00 57 1018.9
20260505152403 77 18 0.0 3.5 0.00 0.00 0.00 58 1018.9
20260505152304 77 84 0.9 3.5 0.00 0.00 0.00 57 1018.8
20260505152202 77 281 0.0 3.5 0.00 0.00 0.00 56 1018.9
20260505152102 77 153 0.0 3.5 0.00 0.00 0.00 55 1018.9
20260505151902 77 222 3.5 3.5 0.00 0.00 0.00 57 1018.9
20260505151802 77 241 0.0 2.6 0.00 0.00 0.00 58 1018.8
20260505151702 77 219 0.0 2.6 0.00 0.00 0.00 56 1018.8
20260505151602 77 77 0.0 2.6 0.00 0.00 0.00 58 1018.8
20260505151402 76 130 0.0 2.6 0.00 0.00 0.00 59 1018.8
20260505151302 76 172 0.9 2.6 0.00 0.00 0.00 57 1018.9
20260505151202 76 84 0.0 2.6 0.00 0.00 0.00 58 1018.9
20260505151102 76 214 0.0 2.6 0.00 0.00 0.00 58 1018.8
20260505151002 76 251 1.7 1.7 0.00 0.00 0.00 58 1018.8
20260505150804 76 109 0.0 2.6 0.00 0.00 0.00 60 1018.8
20260505150702 76 221 0.0 2.6 0.00 0.00 0.00 61 1018.8
20260505150602 75 189 0.0 2.6 0.00 0.00 0.00 61 1018.8
20260505150502 75 352 0.0 6.1 0.00 0.00 0.00 59 1018.7
20260505150402 75 89 0.0 6.1 0.00 0.00 0.00 61 1018.8
20260505150302 75 94 0.0 6.1 0.00 0.00 0.00 59 1018.8
20260505150202 75 234 0.0 6.1 0.00 0.00 0.00 59 1018.7
20260505140604 74 72 0.0 4.3 0.00 0.00 0.00 61 1018.6
20260505140502 74 210 0.0 4.3 0.00 0.00 0.00 61 1018.8
20260505130302 72 197 0.9 1.7 0.00 0.00 0.00 67 1018.5
20260505130202 71 122 0.0 2.6 0.00 0.00 0.00 67 1018.5
20260505125002 71 58 0.0 3.5 0.00 0.00 0.00 69 1018.5
20260505124902 71 95 0.0 3.5 0.00 0.00 0.00 70 1018.6
20260505124802 71 91 0.0 3.5 0.00 0.00 0.00 69 1018.6
20260505124602 71 148 0.0 1.7 0.00 0.00 0.00 71 1018.5
20260505124502 71 65 0.0 1.7 0.00 0.00 0.00 73 1018.5
20260505124402 71 129 0.0 1.7 0.00 0.00 0.00 74 1018.5
20260505124302 71 129 0.0 1.7 0.00 0.00 0.00 74 1018.6
20260505124202 70 129 0.0 1.7 0.00 0.00 0.00 74 1018.5
20260505124102 70 129 0.0 1.7 0.00 0.00 0.00 74 1018.4
20260505123705 70 122 0.9 1.7 0.00 0.00 0.00 74 1018.4
20260505123502 70 101 0.0 5.2 0.00 0.00 0.00 74 1018.4
20260505123402 70 101 0.0 5.2 0.00 0.00 0.00 75 1018.4
20260505123302 69 101 0.0 5.2 0.00 0.00 0.00 75 1018.4
20260505123202 69 84 0.0 5.2 0.00 0.00 0.00 76 1018.4
20260505123102 69 198 0.0 5.2 0.00 0.00 0.00 76 1018.4
20260505123002 69 185 0.0 5.2 0.00 0.00 0.00 76 1018.4
20260505122902 69 185 0.0 5.2 0.00 0.00 0.00 76 1018.3
20260505122805 69 148 0.0 5.2 0.00 0.00 0.00 77 1018.3
20260505122502 68 131 0.0 1.7 0.00 0.00 0.00 80 1018.3
20260505122404 68 131 0.0 1.7 0.00 0.00 0.00 80 1018.3
20260505122305 68 131 0.0 1.7 0.00 0.00 0.00 81 1018.3
20260505122202 67 131 0.0 1.7 0.00 0.00 0.00 82 1018.3
20260505122103 67 131 0.0 1.7 0.00 0.00 0.00 82 1018.4
20260505122002 67 143 0.0 1.7 0.00 0.00 0.00 83 1018.3
20260505121902 67 108 0.0 1.7 0.00 0.00 0.00 83 1018.4
20260505121802 66 108 0.0 1.7 0.00 0.00 0.00 84 1018.4
20260505121702 66 115 0.0 0.9 0.00 0.00 0.00 85 1018.4
20260505121602 66 92 0.0 0.9 0.00 0.00 0.00 87 1018.3
20260505121502 65 105 0.0 0.9 0.00 0.00 0.00 87 1018.5
20260505121402 65 105 0.0 0.9 0.00 0.00 0.00 88 1018.3
20260505121302 65 105 0.0 0.9 0.00 0.00 0.00 89 1018.4
20260505121202 64 111 0.0 0.9 0.00 0.00 0.00 89 1018.4
20260505121102 64 111 0.0 0.9 0.00 0.00 0.00 90 1018.4
20260505121002 64 101 0.0 0.9 0.00 0.00 0.00 91 1018.4
20260505120902 63 101 0.0 0.9 0.00 0.00 0.00 91 1018.5
20260505120802 63 101 0.0 0.9 0.00 0.00 0.00 91 1018.4
20260505120702 63 101 0.0 0.9 0.00 0.00 0.00 91 1018.4
20260505120602 63 101 0.0 0.9 0.00 0.00 0.00 92 1018.4
20260505120502 63 101 0.0 0.9 0.00 0.00 0.00 92 1018.4
20260505120402 63 101 0.0 0.9 0.00 0.00 0.00 92 1018.4
20260505120202 62 98 0.0 0.0 0.00 0.00 0.00 93 1018.4
20260505120005 62 98 0.0 0.0 0.00 0.00 0.00 93 1018.4
20260505115902 62 98 0.0 0.0 0.00 0.00 0.00 93 1018.4
20260505115802 62 98 0.0 0.0 0.00 0.00 0.00 93 1018.4
20260505115602 61 98 0.0 0.0 0.00 0.00 0.00 94 1018.3
20260505115502 61 98 0.0 0.0 0.00 0.00 0.00 94 1018.4
20260505115402 61 98 0.0 0.0 0.00 0.00 0.00 94 1018.4
20260505115304 61 98 0.0 0.0 0.00 0.00 0.00 94 1018.4
20260505115202 60 98 0.0 0.0 0.00 0.00 0.00 94 1018.5
20260505115102 60 98 0.0 0.0 0.00 0.00 0.00 94 1018.3
20260505115002 60 98 0.0 0.0 0.00 0.00 0.00 94 1018.4
20260505114902 60 98 0.0 0.0 0.00 0.00 0.00 94 1018.3
20260505114704 60 98 0.0 0.0 0.00 0.00 0.00 94 1018.4
20260505114502 59 98 0.0 0.0 0.00 0.00 0.00 94 1018.2
20260505114402 59 98 0.0 0.0 0.00 0.00 0.00 94 1018.3
20260505114202 59 98 0.0 0.0 0.00 0.00 0.00 94 1018.3
20260505114102 59 98 0.0 0.0 0.00 0.00 0.00 93 1018.3
20260505114002 59 98 0.0 0.0 0.00 0.00 0.00 93 1018.2
20260505113902 59 98 0.0 0.0 0.00 0.00 0.00 93 1018.2
20260505113802 59 98 0.0 0.0 0.00 0.00 0.00 93 1018.2
20260505113702 58 98 0.0 0.0 0.00 0.00 0.00 93 1018.2
20260505113602 58 98 0.0 0.0 0.00 0.00 0.00 93 1018.2
20260505113502 58 98 0.0 0.0 0.00 0.00 0.00 93 1018.2
20260505113402 58 98 0.0 0.0 0.00 0.00 0.00 93 1018.1
20260505113302 58 98 0.0 0.0 0.00 0.00 0.00 93 1018.2
20260505113202 58 98 0.0 0.0 0.00 0.00 0.00 93 1018.2
20260505113102 58 98 0.0 0.0 0.00 0.00 0.00 93 1018.1
20260505113003 58 98 0.0 0.0 0.00 0.00 0.00 93 1018.1
20260505112902 57 98 0.0 0.0 0.00 0.00 0.00 93 1018.1
20260505112602 57 98 0.0 0.0 0.00 0.00 0.00 93 1018.0
20260505112502 57 98 0.0 0.0 0.00 0.00 0.00 93 1018.0
20260505112402 57 98 0.0 0.0 0.00 0.00 0.00 93 1018.0
20260505112305 57 98 0.0 0.0 0.00 0.00 0.00 93 1018.0
20260505112102 57 98 0.0 0.0 0.00 0.00 0.00 93 1018.0
20260505112002 57 98 0.0 0.0 0.00 0.00 0.00 93 1018.0
20260505111905 57 98 0.0 0.0 0.00 0.00 0.00 93 1017.9
20260505111802 57 98 0.0 0.0 0.00 0.00 0.00 93 1017.9
20260505111703 57 98 0.0 0.0 0.00 0.00 0.00 93 1017.9
20260505111502 57 98 0.0 0.0 0.00 0.00 0.00 93 1017.8
20260505111402 57 98 0.0 0.0 0.00 0.00 0.00 93 1017.8
20260505111302 56 98 0.0 0.0 0.00 0.00 0.00 93 1017.8
20260505111102 56 98 0.0 0.0 0.00 0.00 0.00 93 1017.8
20260505111002 56 98 0.0 0.0 0.00 0.00 0.00 93 1017.7
20260505110902 56 98 0.0 0.0 0.00 0.00 0.00 93 1017.8
20260505110802 56 98 0.0 0.0 0.00 0.00 0.00 93 1017.7
20260505110702 56 98 0.0 0.0 0.00 0.00 0.00 93 1017.7
20260505110602 56 98 0.0 0.0 0.00 0.00 0.00 93 1017.6
20260505110402 56 98 0.0 0.0 0.00 0.00 0.00 93 1017.6
20260505110302 56 98 0.0 0.0 0.00 0.00 0.00 93 1017.6
20260505102202 56 98 0.0 0.0 0.00 0.00 0.00 92 1017.0
20260505102102 56 98 0.0 0.0 0.00 0.00 0.00 92 1016.9
20260505102002 56 98 0.0 0.0 0.00 0.00 0.00 92 1016.9
20260505101902 56 98 0.0 0.0 0.00 0.00 0.00 92 1016.9
20260505101802 56 98 0.0 0.0 0.00 0.00 0.00 92 1016.9
20260505101702 56 98 0.0 0.0 0.00 0.00 0.00 92 1017.0
20260505101602 56 98 0.0 0.0 0.00 0.00 0.00 92 1017.0
20260505101502 56 98 0.0 0.0 0.00 0.00 0.00 92 1016.9
20260505101403 56 98 0.0 0.0 0.00 0.00 0.00 92 1016.8
20260505101302 56 98 0.0 0.0 0.00 0.00 0.00 92 1016.9
20260505101002 57 98 0.0 0.0 0.00 0.00 0.00 92 1016.8
20260505100902 57 98 0.0 0.0 0.00 0.00 0.00 92 1016.8
20260505100802 57 98 0.0 0.0 0.00 0.00 0.00 92 1016.9
20260505100702 57 98 0.0 0.0 0.00 0.00 0.00 92 1016.7
20260505100602 57 98 0.0 0.0 0.00 0.00 0.00 92 1016.8
20260505100502 57 98 0.0 0.0 0.00 0.00 0.00 92 1016.8
20260505100402 57 98 0.0 0.0 0.00 0.00 0.00 91 1016.9
20260505100302 57 98 0.0 0.0 0.00 0.00 0.00 91 1016.8
20260505100202 57 98 0.0 0.0 0.00 0.00 0.00 91 1016.9
20260505095902 57 98 0.0 0.0 0.00 0.00 0.00 91 1016.9
20260505095702 57 98 0.0 0.0 0.00 0.00 0.00 91 1016.8
20260505095602 57 98 0.0 0.0 0.00 0.00 0.00 91 1016.8
20260505095502 57 98 0.0 0.0 0.00 0.00 0.00 91 1016.9
20260505095402 57 98 0.0 0.0 0.00 0.00 0.00 91 1016.8
20260505095304 57 98 0.0 0.0 0.00 0.00 0.00 91 1016.8
20260505095202 57 98 0.0 0.0 0.00 0.00 0.00 91 1016.9
20260505095102 57 98 0.0 0.0 0.00 0.00 0.00 91 1016.8
20260505095002 57 98 0.0 0.0 0.00 0.00 0.00 91 1016.8
20260505094902 57 98 0.0 0.0 0.00 0.00 0.00 91 1016.8
20260505094802 57 98 0.0 0.0 0.00 0.00 0.00 91 1016.7
20260505094602 57 98 0.0 0.0 0.00 0.00 0.00 91 1016.8
20260505094504 57 98 0.0 0.0 0.00 0.00 0.00 91 1016.7
20260505094402 57 98 0.0 0.0 0.00 0.00 0.00 91 1016.7
20260505094302 57 98 0.0 0.0 0.00 0.00 0.00 91 1016.7
20260505094202 57 98 0.0 0.0 0.00 0.00 0.00 91 1016.8
20260505094102 57 98 0.0 0.0 0.00 0.00 0.00 91 1016.7
20260505094002 57 98 0.0 0.0 0.00 0.00 0.00 91 1016.7
20260505093902 57 98 0.0 0.0 0.00 0.00 0.00 91 1016.8
20260505093702 57 98 0.0 0.0 0.00 0.00 0.00 91 1016.7
20260505093602 57 98 0.0 0.0 0.00 0.00 0.00 91 1016.7
20260505093502 57 98 0.0 0.0 0.00 0.00 0.00 91 1016.7
20260505093402 57 98 0.0 0.0 0.00 0.00 0.00 91 1016.7
20260505093304 57 98 0.0 0.0 0.00 0.00 0.00 91 1016.8
20260505093202 57 98 0.0 0.0 0.00 0.00 0.00 91 1016.7
20260505093102 57 98 0.0 0.0 0.00 0.00 0.00 91 1016.7
20260505093002 58 98 0.0 0.0 0.00 0.00 0.00 91 1016.7
20260505092905 58 98 0.0 0.0 0.00 0.00 0.00 91 1016.7
20260505092802 58 98 0.0 0.0 0.00 0.00 0.00 91 1016.7
20260505092702 58 98 0.0 0.0 0.00 0.00 0.00 91 1016.7
20260505092502 58 98 0.0 0.0 0.00 0.00 0.00 90 1016.6
20260505092402 58 98 0.0 0.0 0.00 0.00 0.00 90 1016.6
20260505092304 58 98 0.0 0.0 0.00 0.00 0.00 90 1016.7
20260505092102 58 98 0.0 0.0 0.00 0.00 0.00 90 1016.6
20260505091902 58 98 0.0 0.0 0.00 0.00 0.00 90 1016.5
20260505091702 58 98 0.0 0.0 0.00 0.00 0.00 90 1016.4
20260505091502 58 98 0.0 0.0 0.00 0.00 0.00 90 1016.5
20260505091402 58 98 0.0 0.0 0.00 0.00 0.00 90 1016.5
20260505091302 58 98 0.0 0.0 0.00 0.00 0.00 90 1016.4
20260505091202 58 98 0.0 0.0 0.00 0.00 0.00 90 1016.5
20260505091102 58 98 0.0 0.0 0.00 0.00 0.00 90 1016.5
20260505091002 58 98 0.0 0.0 0.00 0.00 0.00 90 1016.5
20260505090902 58 98 0.0 0.0 0.00 0.00 0.00 90 1016.5
20260505090802 58 98 0.0 0.0 0.00 0.00 0.00 90 1016.4
20260505090702 58 98 0.0 0.0 0.00 0.00 0.00 89 1016.5
20260505090502 58 98 0.0 0.0 0.00 0.00 0.00 89 1016.4
20260505090402 58 98 0.0 0.0 0.00 0.00 0.00 89 1016.5
20260505090202 58 98 0.0 0.0 0.00 0.00 0.00 89 1016.4
20260505085902 58 98 0.0 0.0 0.00 0.00 0.00 89 1016.4
20260505085802 58 98 0.0 0.0 0.00 0.00 0.00 89 1016.5
20260505085602 58 98 0.0 0.0 0.00 0.00 0.00 89 1016.5
20260505085502 58 98 0.0 0.0 0.00 0.00 0.00 89 1016.4
20260505085402 58 98 0.0 0.0 0.00 0.00 0.00 88 1016.4
20260505085202 58 98 0.0 0.0 0.00 0.00 0.00 88 1016.5
20260505084802 59 98 0.0 0.0 0.00 0.00 0.00 88 1016.4
20260505084702 59 98 0.0 0.0 0.00 0.00 0.00 88 1016.4
20260505084602 59 98 0.0 0.0 0.00 0.00 0.00 88 1016.4
20260505084502 59 98 0.0 0.0 0.00 0.00 0.00 88 1016.5
20260505084402 59 98 0.0 0.0 0.00 0.00 0.00 88 1016.4
20260505084302 59 98 0.0 0.0 0.00 0.00 0.00 88 1016.3
20260505084202 59 98 0.0 0.0 0.00 0.00 0.00 88 1016.4
20260505084102 59 98 0.0 0.0 0.00 0.00 0.00 88 1016.4
20260505084002 59 98 0.0 0.0 0.00 0.00 0.00 87 1016.4
20260505083902 59 98 0.0 0.0 0.00 0.00 0.00 87 1016.4
20260505083702 59 98 0.0 0.0 0.00 0.00 0.00 87 1016.4
20260505083506 59 98 0.0 0.0 0.00 0.00 0.00 87 1016.4
20260505083302 59 98 0.0 0.0 0.00 0.00 0.00 86 1016.4
20260505083102 59 98 0.0 0.0 0.00 0.00 0.00 86 1016.4
20260505083002 60 98 0.0 0.0 0.00 0.00 0.00 86 1016.4
20260505082902 60 98 0.0 0.0 0.00 0.00 0.00 86 1016.4
20260505082802 60 98 0.0 0.0 0.00 0.00 0.00 86 1016.4
20260505082702 60 98 0.0 0.0 0.00 0.00 0.00 86 1016.4
20260505082605 60 98 0.0 0.0 0.00 0.00 0.00 86 1016.4
20260505082502 60 98 0.0 0.0 0.00 0.00 0.00 85 1016.3
20260505082402 60 98 0.0 0.0 0.00 0.00 0.00 85 1016.4
20260505082202 60 98 0.0 0.0 0.00 0.00 0.00 85 1016.3
20260505082002 60 98 0.0 0.0 0.00 0.00 0.00 85 1016.3
20260505081902 60 98 0.0 0.0 0.00 0.00 0.00 84 1016.4
20260505081802 61 98 0.0 0.0 0.00 0.00 0.00 84 1016.4
20260505081702 61 98 0.0 0.0 0.00 0.00 0.00 84 1016.4
20260505081602 61 98 0.0 0.0 0.00 0.00 0.00 84 1016.4
20260505081502 61 98 0.0 0.0 0.00 0.00 0.00 84 1016.3
20260505081402 61 98 0.0 0.0 0.00 0.00 0.00 84 1016.4
20260505081302 61 98 0.0 0.0 0.00 0.00 0.00 83 1016.3
20260505081202 61 98 0.0 0.0 0.00 0.00 0.00 83 1016.3
20260505081102 61 98 0.0 0.0 0.00 0.00 0.00 83 1016.3
20260505081002 62 98 0.0 0.9 0.00 0.00 0.00 83 1016.3
20260505080902 62 98 0.0 0.9 0.00 0.00 0.00 83 1016.3
20260505080802 62 98 0.0 0.9 0.00 0.00 0.00 82 1016.3
20260505080502 62 98 0.0 0.9 0.00 0.00 0.00 82 1016.2
20260505080302 63 98 0.0 0.9 0.00 0.00 0.00 82 1016.3
20260505080202 63 98 0.0 0.9 0.00 0.00 0.00 81 1016.4
20260505080004 63 100 0.0 0.9 0.00 0.00 0.00 82 1016.4
20260505075902 63 101 0.0 0.9 0.00 0.00 0.00 82 1016.3
20260505075802 64 101 0.0 0.9 0.00 0.00 0.00 82 1016.4
20260505075602 64 101 0.0 0.9 0.00 0.00 0.00 82 1016.2
20260505075502 64 101 0.0 1.7 0.00 0.00 0.00 82 1016.3
20260505075402 64 101 0.0 1.7 0.00 0.00 0.00 82 1016.3
20260505075304 64 102 0.0 1.7 0.00 0.00 0.00 82 1016.3
20260505075202 64 102 0.0 1.7 0.00 0.00 0.00 82 1016.3
20260505075102 64 158 0.0 1.7 0.00 0.00 0.00 82 1016.3
20260505075002 64 158 0.0 1.7 0.00 0.00 0.00 82 1016.3
20260505074902 64 158 0.0 1.7 0.00 0.00 0.00 82 1016.3
20260505074802 64 158 0.0 1.7 0.00 0.00 0.00 82 1016.3
20260505074602 64 97 0.0 0.9 0.00 0.00 0.00 81 1016.3
20260505074502 64 148 0.0 0.9 0.00 0.00 0.00 81 1016.3
20260505074302 64 150 0.0 0.9 0.00 0.00 0.00 81 1016.2
20260505074102 64 159 0.0 0.9 0.00 0.00 0.00 80 1016.3
20260505074004 64 159 0.0 0.9 0.00 0.00 0.00 80 1016.3
20260505073902 64 159 0.0 0.9 0.00 0.00 0.00 80 1016.3
20260505073802 64 159 0.0 0.9 0.00 0.00 0.00 80 1016.3
20260505073702 64 160 0.0 0.9 0.00 0.00 0.00 80 1016.3
20260505073602 64 155 0.0 0.9 0.00 0.00 0.00 80 1016.3
20260505073402 64 162 0.0 1.7 0.00 0.00 0.00 80 1016.3
20260505073305 64 155 0.0 1.7 0.00 0.00 0.00 79 1016.3
20260505073203 64 117 0.0 1.7 0.00 0.00 0.00 79 1016.3
20260505073102 64 113 0.0 1.7 0.00 0.00 0.00 79 1016.3
20260505073002 64 113 0.0 1.7 0.00 0.00 0.00 79 1016.3
20260505072802 64 157 0.0 1.7 0.00 0.00 0.00 79 1016.4
20260505072702 64 141 0.0 1.7 0.00 0.00 0.00 79 1016.3
20260505072602 64 141 0.0 1.7 0.00 0.00 0.00 79 1016.3
20260505072502 64 102 0.0 0.9 0.00 0.00 0.00 79 1016.4
20260505072402 64 160 0.0 0.9 0.00 0.00 0.00 79 1016.3
20260505072304 64 143 0.0 0.9 0.00 0.00 0.00 79 1016.4
20260505072202 64 140 0.0 0.9 0.00 0.00 0.00 79 1016.3
20260505072102 64 97 0.0 0.9 0.00 0.00 0.00 79 1016.4
20260505072002 64 161 0.0 0.9 0.00 0.00 0.00 79 1016.3
20260505071802 64 122 0.0 0.9 0.00 0.00 0.00 79 1016.4
20260505071702 64 165 0.0 0.9 0.00 0.00 0.00 79 1016.5
20260505071602 64 163 0.0 0.9 0.00 0.00 0.00 79 1016.4
20260505071502 64 163 0.0 0.9 0.00 0.00 0.00 79 1016.4
20260505071402 64 138 0.0 0.9 0.00 0.00 0.00 79 1016.4
20260505071302 64 134 0.0 0.9 0.00 0.00 0.00 79 1016.4
20260505071202 64 115 0.0 0.9 0.00 0.00 0.00 79 1016.4
20260505071103 64 115 0.0 0.9 0.00 0.00 0.00 79 1016.4
20260505071002 64 115 0.0 0.9 0.00 0.00 0.00 79 1016.4
20260505070902 64 113 0.0 0.9 0.00 0.00 0.00 79 1016.4
20260505070802 64 112 0.0 0.9 0.00 0.00 0.00 79 1016.4
20260505070702 64 112 0.0 0.9 0.00 0.00 0.00 79 1016.3
20260505070602 64 142 0.0 0.9 0.00 0.00 0.00 79 1016.4
20260505070502 64 104 0.0 0.9 0.00 0.00 0.00 80 1016.3
20260505070402 64 158 0.0 0.9 0.00 0.00 0.00 79 1016.4
20260505070302 64 51 0.0 0.9 0.00 0.00 0.00 80 1016.4
20260505070202 64 145 0.0 0.9 0.00 0.00 0.00 79 1016.4
20260505070005 64 122 0.0 0.9 0.00 0.00 0.00 79 1016.3
20260505065902 64 120 0.0 1.7 0.00 0.00 0.00 79 1016.4
20260505065802 64 133 0.0 1.7 0.00 0.00 0.00 79 1016.4
20260505065702 64 133 0.0 1.7 0.00 0.00 0.00 79 1016.4
20260505065602 64 133 0.0 1.7 0.00 0.00 0.00 79 1016.4
20260505065502 64 122 0.0 1.7 0.00 0.00 0.00 79 1016.4
20260505065402 64 151 0.0 1.7 0.00 0.00 0.00 79 1016.4
20260505065303 64 141 0.0 1.7 0.00 0.00 0.00 79 1016.4
20260505065102 64 148 0.0 1.7 0.00 0.00 0.00 79 1016.4
20260505065002 65 120 0.0 0.9 0.00 0.00 0.00 78 1016.4
20260505064905 65 120 0.0 0.9 0.00 0.00 0.00 78 1016.4
20260505064802 65 120 0.0 0.9 0.00 0.00 0.00 78 1016.3
20260505064702 65 122 0.0 1.7 0.00 0.00 0.00 78 1016.3
20260505064602 65 122 0.0 1.7 0.00 0.00 0.00 78 1016.3
20260505064502 65 118 0.0 1.7 0.00 0.00 0.00 77 1016.3
20260505064302 65 137 0.0 1.7 0.00 0.00 0.00 77 1016.4
20260505064202 65 130 0.0 1.7 0.00 0.00 0.00 77 1016.4
20260505064102 65 112 0.0 1.7 0.00 0.00 0.00 77 1016.5
20260505064002 65 129 0.9 1.7 0.00 0.00 0.00 77 1016.5
20260505063903 65 106 0.0 0.9 0.00 0.00 0.00 77 1016.4
20260505063802 65 103 0.0 0.9 0.00 0.00 0.00 77 1016.5
20260505063702 65 81 0.9 0.9 0.00 0.00 0.00 77 1016.4
20260505063603 65 136 0.0 0.9 0.00 0.00 0.00 77 1016.5
20260505063502 65 136 0.0 0.9 0.00 0.00 0.00 77 1016.5
20260505063402 65 135 0.0 0.9 0.00 0.00 0.00 77 1016.6
20260505063306 65 135 0.0 0.9 0.00 0.00 0.00 77 1016.6
20260505063102 65 102 0.0 0.9 0.00 0.00 0.00 77 1016.6
20260505063002 65 101 0.0 0.9 0.00 0.00 0.00 77 1016.6
20260505062902 65 111 0.0 0.9 0.00 0.00 0.00 77 1016.6
20260505062802 65 132 0.9 0.9 0.00 0.00 0.00 77 1016.6
20260505062502 65 115 0.0 3.5 0.00 0.00 0.00 76 1016.6
20260505062304 65 114 0.0 3.5 0.00 0.00 0.00 76 1016.6
20260505062202 65 134 0.9 3.5 0.00 0.00 0.00 76 1016.6
20260505062102 65 98 0.0 3.5 0.00 0.00 0.00 76 1016.7
20260505062002 65 131 0.0 3.5 0.00 0.00 0.00 76 1016.7
20260505061902 65 131 0.0 3.5 0.00 0.00 0.00 76 1016.7
20260505061802 65 133 0.0 3.5 0.00 0.00 0.00 76 1016.8
20260505061702 65 139 0.0 0.9 0.00 0.00 0.00 76 1016.8
20260505061602 65 129 0.0 0.9 0.00 0.00 0.00 76 1016.7
20260505061502 65 127 0.0 0.9 0.00 0.00 0.00 76 1016.7
20260505061402 65 171 0.0 0.9 0.00 0.00 0.00 76 1016.8
20260505061202 65 106 0.0 2.6 0.00 0.00 0.00 76 1016.8
20260505061102 65 96 0.0 3.5 0.00 0.00 0.00 76 1016.7
20260505061002 65 165 0.0 3.5 0.00 0.00 0.00 76 1016.8
20260505060902 65 144 0.0 3.5 0.00 0.00 0.00 76 1016.9
20260505060802 65 129 0.0 3.5 0.00 0.00 0.00 76 1016.9
20260505060702 65 130 0.0 3.5 0.00 0.00 0.00 76 1016.8
20260505060602 65 117 0.9 3.5 0.00 0.00 0.00 76 1016.8
20260505060502 65 117 0.0 3.5 0.00 0.00 0.00 76 1016.9
20260505060402 65 144 0.9 3.5 0.00 0.00 0.00 76 1016.9
20260505060302 65 103 0.0 3.5 0.00 0.00 0.00 76 1016.9
20260505060202 65 158 0.0 1.7 0.00 0.00 0.00 76 1016.9
20260505060005 65 79 0.0 1.7 0.00 0.00 0.00 76 1017.0
20260505055902 65 134 0.0 1.7 0.00 0.00 0.00 76 1017.0
20260505055802 65 122 0.0 1.7 0.00 0.00 0.00 75 1017.0
20260505055702 65 168 0.0 1.7 0.00 0.00 0.00 75 1017.0
20260505055602 65 169 0.0 1.7 0.00 0.00 0.00 75 1017.0
20260505055402 65 160 0.0 1.7 0.00 0.00 0.00 75 1017.0
20260505055303 65 160 0.0 1.7 0.00 0.00 0.00 75 1017.0
20260505055202 65 125 0.0 1.7 0.00 0.00 0.00 75 1017.0
20260505055002 65 112 0.0 1.7 0.00 0.00 0.00 75 1017.1
20260505054702 65 137 0.0 1.7 0.00 0.00 0.00 75 1017.0
20260505054602 65 136 0.0 1.7 0.00 0.00 0.00 75 1017.0
20260505054502 65 68 0.0 1.7 0.00 0.00 0.00 75 1017.1
20260505054402 65 68 0.0 1.7 0.00 0.00 0.00 74 1017.1
20260505054302 65 134 0.0 1.7 0.00 0.00 0.00 74 1017.1
20260505054202 65 130 0.9 1.7 0.00 0.00 0.00 74 1017.1
20260505054102 65 50 0.0 1.7 0.00 0.00 0.00 74 1017.0
20260505054002 65 132 0.0 1.7 0.00 0.00 0.00 74 1017.2
20260505053902 65 112 0.0 1.7 0.00 0.00 0.00 74 1017.1
20260505053804 65 156 0.0 1.7 0.00 0.00 0.00 74 1017.1
20260505053702 65 159 0.0 1.7 0.00 0.00 0.00 74 1017.2
20260505053602 65 156 1.7 1.7 0.00 0.00 0.00 74 1017.3
20260505053502 65 131 0.0 3.5 0.00 0.00 0.00 74 1017.2
20260505053402 65 148 0.0 3.5 0.00 0.00 0.00 74 1017.2
20260505053302 65 91 0.0 3.5 0.00 0.00 0.00 74 1017.3
20260505053102 65 141 0.0 3.5 0.00 0.00 0.00 74 1017.2
20260505053002 65 132 0.0 3.5 0.00 0.00 0.00 74 1017.3
20260505052902 65 140 0.0 3.5 0.00 0.00 0.00 74 1017.3
20260505052802 65 141 0.0 3.5 0.00 0.00 0.00 74 1017.2
20260505052702 65 111 0.0 3.5 0.00 0.00 0.00 74 1017.2
20260505052602 65 116 0.0 1.7 0.00 0.00 0.00 74 1017.2
20260505052502 65 116 0.0 1.7 0.00 0.00 0.00 75 1017.3
20260505052402 65 167 0.0 1.7 0.00 0.00 0.00 74 1017.3
20260505052102 65 153 0.9 2.6 0.00 0.00 0.00 74 1017.4
20260505051802 65 126 0.0 2.6 0.00 0.00 0.00 74 1017.4
20260505051702 65 128 0.0 2.6 0.00 0.00 0.00 74 1017.4
20260505051502 65 75 0.0 2.6 0.00 0.00 0.00 74 1017.4
20260505051402 66 148 0.0 2.6 0.00 0.00 0.00 74 1017.4
20260505051302 66 148 0.0 2.6 0.00 0.00 0.00 74 1017.4
20260505051202 65 120 0.0 2.6 0.00 0.00 0.00 73 1017.4
20260505051102 65 136 0.0 2.6 0.00 0.00 0.00 73 1017.4
20260505051002 65 111 0.0 2.6 0.00 0.00 0.00 73 1017.4
20260505050902 66 129 0.9 2.6 0.00 0.00 0.00 73 1017.5
20260505050802 66 122 0.9 2.6 0.00 0.00 0.00 73 1017.5
20260505050702 66 133 0.0 2.6 0.00 0.00 0.00 73 1017.5
20260505050602 66 141 0.0 2.6 0.00 0.00 0.00 73 1017.4
20260505050502 66 124 0.0 2.6 0.00 0.00 0.00 73 1017.5
20260505050402 66 160 0.0 2.6 0.00 0.00 0.00 73 1017.5
20260505050302 66 122 0.0 1.7 0.00 0.00 0.00 74 1017.5
20260505041703 65 148 0.0 4.3 0.00 0.00 0.00 73 1017.5
20260505041603 65 148 0.0 4.3 0.00 0.00 0.00 73 1017.4
20260505041403 65 122 1.7 2.6 0.00 0.00 0.00 73 1017.5
20260505041204 65 126 0.0 2.6 0.00 0.00 0.00 73 1017.4
20260505041104 65 126 0.0 2.6 0.00 0.00 0.00 73 1017.4
20260505041004 65 138 0.9 2.6 0.00 0.00 0.00 73 1017.5
20260505040703 65 129 0.0 2.6 0.00 0.00 0.00 73 1017.4
20260505040603 65 138 0.0 2.6 0.00 0.00 0.00 73 1017.4
20260505040503 65 72 1.7 2.6 0.00 0.00 0.00 73 1017.4
20260505040403 65 145 0.0 1.7 0.00 0.00 0.00 73 1017.5
20260505040303 65 145 0.0 1.7 0.00 0.00 0.00 73 1017.5
20260505040203 65 149 0.0 1.7 0.00 0.00 0.00 73 1017.5
20260505040103 65 149 0.0 1.7 0.00 0.00 0.00 73 1017.5
20260505040007 65 149 0.0 1.7 0.00 0.00 0.00 73 1017.4
20260505035903 65 150 0.0 1.7 0.00 0.00 0.00 73 1017.5
20260505035803 65 125 0.0 1.7 0.00 0.00 0.00 73 1017.5
20260505035603 65 139 0.0 1.7 0.00 0.00 0.00 72 1017.4
20260505035503 65 139 0.0 1.7 0.00 0.00 0.00 72 1017.5
20260505035403 65 127 0.0 1.7 0.00 0.00 0.00 73 1017.4
20260505035304 65 107 0.9 1.7 0.00 0.00 0.00 73 1017.5
20260505035203 65 107 0.0 1.7 0.00 0.00 0.00 73 1017.4
20260505035103 66 107 0.0 1.7 0.00 0.00 0.00 73 1017.5
20260505035003 65 80 0.9 1.7 0.00 0.00 0.00 72 1017.3
20260505034805 66 57 0.0 1.7 0.00 0.00 0.00 72 1017.4
20260505034703 66 4 0.0 1.7 0.00 0.00 0.00 72 1017.5
20260505034503 66 162 0.0 1.7 0.00 0.00 0.00 72 1017.4
20260505034303 66 113 0.0 1.7 0.00 0.00 0.00 72 1017.4
20260505034203 66 106 0.9 1.7 0.00 0.00 0.00 72 1017.4
20260505034103 66 141 0.0 2.6 0.00 0.00 0.00 72 1017.4
20260505034003 66 120 0.9 2.6 0.00 0.00 0.00 72 1017.4
20260505033903 66 95 0.0 2.6 0.00 0.00 0.00 72 1017.3
20260505033703 66 106 0.0 2.6 0.00 0.00 0.00 72 1017.3
20260505033603 66 119 0.0 2.6 0.00 0.00 0.00 72 1017.3
20260505033506 66 141 0.0 3.5 0.00 0.00 0.00 72 1017.3
20260505033403 66 181 0.0 3.5 0.00 0.00 0.00 72 1017.3
20260505033305 66 82 0.9 3.5 0.00 0.00 0.00 72 1017.3
20260505033203 66 124 0.0 3.5 0.00 0.00 0.00 72 1017.3
20260505033103 66 99 0.0 3.5 0.00 0.00 0.00 72 1017.4
20260505032904 66 167 0.0 3.5 0.00 0.00 0.00 72 1017.4
20260505032803 66 206 0.0 3.5 0.00 0.00 0.00 72 1017.4
20260505032703 66 134 0.9 0.9 0.00 0.00 0.00 72 1017.3
20260505032603 66 165 0.0 2.6 0.00 0.00 0.00 72 1017.4
20260505032503 66 165 0.0 2.6 0.00 0.00 0.00 72 1017.4
20260505032304 66 167 0.0 2.6 0.00 0.00 0.00 72 1017.4
20260505032203 66 85 0.0 2.6 0.00 0.00 0.00 72 1017.4
20260505032103 66 84 0.0 2.6 0.00 0.00 0.00 72 1017.3
20260505031903 66 108 0.0 2.6 0.00 0.00 0.00 72 1017.4
20260505031803 66 108 0.0 2.6 0.00 0.00 0.00 72 1017.4
20260505031603 66 168 0.0 2.6 0.00 0.00 0.00 73 1017.4
20260505031503 66 169 0.0 2.6 0.00 0.00 0.00 73 1017.4
20260505031403 66 38 0.0 2.6 0.00 0.00 0.00 73 1017.5
20260505031303 66 22 0.0 2.6 0.00 0.00 0.00 73 1017.4
20260505031203 66 236 0.9 2.6 0.00 0.00 0.00 73 1017.5
20260505031103 66 236 0.0 2.6 0.00 0.00 0.00 72 1017.4
20260505030903 66 118 0.9 1.7 0.00 0.00 0.00 72 1017.5
20260505030703 66 98 0.0 1.7 0.00 0.00 0.00 72 1017.5
20260505030603 66 130 0.0 1.7 0.00 0.00 0.00 72 1017.5
20260505030503 66 130 0.0 1.7 0.00 0.00 0.00 72 1017.5
20260505030403 66 160 0.0 1.7 0.00 0.00 0.00 72 1017.5
20260505030204 66 86 0.0 1.7 0.00 0.00 0.00 72 1017.6
20260505030103 66 79 0.0 1.7 0.00 0.00 0.00 72 1017.5
20260505030006 66 146 0.0 1.7 0.00 0.00 0.00 72 1017.5
20260505025803 66 74 1.7 1.7 0.00 0.00 0.00 72 1017.5
20260505025603 66 99 1.7 1.7 0.00 0.00 0.00 72 1017.4
20260505025503 66 95 0.9 1.7 0.00 0.00 0.00 72 1017.5
20260505025403 66 86 0.0 1.7 0.00 0.00 0.00 72 1017.5
20260505025304 66 164 0.0 1.7 0.00 0.00 0.00 72 1017.5
20260505025203 66 118 0.9 1.7 0.00 0.00 0.00 71 1017.4
20260505025003 66 171 0.0 5.2 0.00 0.00 0.00 71 1017.5
20260505024903 66 170 0.0 5.2 0.00 0.00 0.00 71 1017.6
20260505024703 66 109 0.0 5.2 0.00 0.00 0.00 71 1017.6
20260505024603 66 109 0.0 5.2 0.00 0.00 0.00 71 1017.5
20260505024503 66 98 0.0 5.2 0.00 0.00 0.00 71 1017.6
20260505024403 66 63 0.9 5.2 0.00 0.00 0.00 71 1017.6
20260505024303 66 107 0.9 5.2 0.00 0.00 0.00 72 1017.6
20260505024203 66 90 0.0 5.2 0.00 0.00 0.00 72 1017.6
20260505024103 66 116 0.0 2.6 0.00 0.00 0.00 72 1017.7
20260505023903 66 122 0.0 2.6 0.00 0.00 0.00 72 1017.6
20260505023803 66 76 0.0 1.7 0.00 0.00 0.00 72 1017.6
20260505023703 66 117 0.0 2.6 0.00 0.00 0.00 72 1017.6
20260505023603 66 117 0.9 2.6 0.00 0.00 0.00 72 1017.7
20260505023403 66 139 0.0 2.6 0.00 0.00 0.00 72 1017.7
20260505023303 66 94 0.0 2.6 0.00 0.00 0.00 72 1017.6
20260505023203 66 217 0.0 2.6 0.00 0.00 0.00 72 1017.7
20260505023003 66 97 0.9 2.6 0.00 0.00 0.00 72 1017.6
20260505022903 66 188 0.0 2.6 0.00 0.00 0.00 71 1017.6
20260505022803 66 167 0.0 2.6 0.00 0.00 0.00 71 1017.6
20260505022703 66 169 0.0 2.6 0.00 0.00 0.00 71 1017.6
20260505022603 66 92 0.0 2.6 0.00 0.00 0.00 71 1017.6
20260505022503 66 118 0.0 3.5 0.00 0.00 0.00 71 1017.6
20260505022403 66 127 2.6 3.5 0.00 0.00 0.00 71 1017.5
20260505022203 66 124 0.0 3.5 0.00 0.00 0.00 71 1017.6
20260505021704 66 138 0.0 3.5 0.00 0.00 0.00 71 1017.6
20260505021603 66 95 0.0 0.9 0.00 0.00 0.00 71 1017.6
20260505021403 66 216 0.0 3.5 0.00 0.00 0.00 71 1017.5
20260505021305 66 131 0.0 3.5 0.00 0.00 0.00 70 1017.6
20260505021203 66 131 0.0 3.5 0.00 0.00 0.00 71 1017.6
20260505021103 66 131 0.0 3.5 0.00 0.00 0.00 70 1017.7
20260505021003 66 132 0.0 3.5 0.00 0.00 0.00 70 1017.6
20260505020903 66 132 0.0 3.5 0.00 0.00 0.00 70 1017.6
20260505020803 66 172 0.0 3.5 0.00 0.00 0.00 70 1017.6
20260505020703 66 207 0.0 3.5 0.00 0.00 0.00 70 1017.6
20260505020603 66 122 1.7 1.7 0.00 0.00 0.00 70 1017.6
20260505020503 66 188 0.0 1.7 0.00 0.00 0.00 70 1017.6
20260505020403 66 86 0.0 1.7 0.00 0.00 0.00 70 1017.6
20260505020303 66 89 0.0 1.7 0.00 0.00 0.00 70 1017.6
20260505020203 66 98 0.0 1.7 0.00 0.00 0.00 70 1017.6
20260505020103 66 107 0.0 1.7 0.00 0.00 0.00 70 1017.6
20260505015903 66 114 0.0 1.7 0.00 0.00 0.00 70 1017.5
20260505015803 66 99 0.0 1.7 0.00 0.00 0.00 70 1017.5
20260505015703 66 194 0.0 1.7 0.00 0.00 0.00 71 1017.5
20260505015603 66 217 0.0 1.7 0.00 0.00 0.00 70 1017.5
20260505015503 66 96 0.0 1.7 0.00 0.00 0.00 71 1017.5
20260505015403 66 186 0.0 4.3 0.00 0.00 0.00 71 1017.5
20260505015304 66 78 0.9 4.3 0.00 0.00 0.00 71 1017.5
20260505015203 66 103 0.0 4.3 0.00 0.00 0.00 70 1017.5
20260505015103 66 176 0.0 4.3 0.00 0.00 0.00 71 1017.5
20260505015003 66 243 0.0 4.3 0.00 0.00 0.00 71 1017.6
20260505014903 66 185 0.0 4.3 0.00 0.00 0.00 71 1017.5
20260505014803 66 144 0.0 4.3 0.00 0.00 0.00 71 1017.5
20260505014603 66 161 4.3 4.3 0.00 0.00 0.00 71 1017.5
20260505014503 66 345 0.0 2.6 0.00 0.00 0.00 71 1017.4
20260505014403 66 37 0.9 2.6 0.00 0.00 0.00 71 1017.5
20260505014303 66 197 0.0 2.6 0.00 0.00 0.00 71 1017.5
20260505014203 66 84 2.6 2.6 0.00 0.00 0.00 71 1017.4
20260505014103 66 55 0.0 2.6 0.00 0.00 0.00 71 1017.4
20260505014003 66 162 0.9 1.7 0.00 0.00 0.00 70 1017.4
20260505013903 66 46 0.9 1.7 0.00 0.00 0.00 70 1017.4
20260505013803 66 112 0.0 1.7 0.00 0.00 0.00 70 1017.4
20260505013703 66 86 0.9 1.7 0.00 0.00 0.00 70 1017.3
20260505013603 66 181 0.0 1.7 0.00 0.00 0.00 70 1017.2
20260505013503 66 112 0.0 1.7 0.00 0.00 0.00 70 1017.3
20260505013403 66 110 0.0 1.7 0.00 0.00 0.00 70 1017.3
20260505013203 66 6 0.0 2.6 0.00 0.00 0.00 70 1017.3
20260505013103 66 189 0.0 2.6 0.00 0.00 0.00 70 1017.2
20260505013003 66 79 0.9 2.6 0.00 0.00 0.00 69 1017.3
20260505012903 66 98 0.9 2.6 0.00 0.00 0.00 69 1017.3
20260505012803 66 110 0.0 2.6 0.00 0.00 0.00 69 1017.2
20260505012703 66 174 0.0 2.6 0.00 0.00 0.00 69 1017.3
20260505012603 66 124 0.0 4.3 0.00 0.00 0.00 69 1017.2
20260505012504 66 116 1.7 4.3 0.00 0.00 0.00 69 1017.2
20260505012403 66 117 0.0 4.3 0.00 0.00 0.00 69 1017.1
20260505012304 66 108 0.0 4.3 0.00 0.00 0.00 68 1017.1
20260505012103 66 158 0.0 4.3 0.00 0.00 0.00 68 1017.2
20260505011903 66 105 0.9 4.3 0.00 0.00 0.00 68 1017.1
20260505011803 66 134 1.7 4.3 0.00 0.00 0.00 69 1017.0
20260505011703 66 178 0.0 3.5 0.00 0.00 0.00 69 1017.0
20260505011603 66 177 0.0 3.5 0.00 0.00 0.00 69 1017.0
20260505011505 66 181 0.0 3.5 0.00 0.00 0.00 69 1017.1
20260505011403 66 188 0.0 3.5 0.00 0.00 0.00 69 1017.0
20260505011303 66 162 0.0 3.5 0.00 0.00 0.00 69 1017.1
20260505011204 66 245 0.0 3.5 0.00 0.00 0.00 69 1017.0
20260505011103 66 124 0.0 3.5 0.00 0.00 0.00 69 1017.0
20260505011003 66 94 0.0 3.5 0.00 0.00 0.00 69 1017.0
20260505010903 66 109 0.0 5.2 0.00 0.00 0.00 68 1017.0
20260505010703 66 165 0.0 5.2 0.00 0.00 0.00 68 1016.9
20260505010203 66 182 0.0 5.2 0.00 0.00 0.00 68 1016.9
20260505010103 66 105 3.5 5.2 0.00 0.00 0.00 68 1016.9
20260505005902 66 37 0.9 3.5 0.00 0.00 0.00 68 1016.9
20260505005802 66 121 0.9 3.5 0.00 0.00 0.00 68 1016.9
20260505005702 66 183 0.0 3.5 0.00 0.00 0.00 67 1016.9
20260505005602 66 37 0.9 3.5 0.00 0.00 0.00 67 1016.9
20260505005502 66 143 0.0 3.5 0.00 0.00 0.00 67 1016.9
20260505005402 66 224 0.0 3.5 0.00 0.00 0.00 67 1016.9
20260505005303 66 176 1.7 3.5 0.00 0.00 0.00 67 1016.8
20260505005202 66 210 0.0 2.6 0.00 0.00 0.00 67 1016.8
20260505005102 66 131 0.0 2.6 0.00 0.00 0.00 67 1016.8
20260505005002 66 101 0.0 3.5 0.00 0.00 0.00 67 1016.7
20260505004902 66 160 0.0 3.5 0.00 0.00 0.00 67 1016.8
20260505004802 66 95 0.0 3.5 0.00 0.00 0.00 67 1016.8
20260505004702 66 167 0.0 3.5 0.00 0.00 0.00 68 1016.9
20260505004602 66 239 0.9 3.5 0.00 0.00 0.00 68 1016.7
20260505004502 66 87 0.0 3.5 0.00 0.00 0.00 68 1016.8
20260505004202 66 173 0.9 3.5 0.00 0.00 0.00 68 1016.7
20260505004102 66 167 0.0 3.5 0.00 0.00 0.00 68 1016.6
20260505004002 66 167 0.0 3.5 0.00 0.00 0.00 68 1016.6
20260505003902 66 102 0.9 3.5 0.00 0.00 0.00 67 1016.7
20260505003802 66 112 0.0 3.5 0.00 0.00 0.00 68 1016.7
20260505003702 66 110 0.0 3.5 0.00 0.00 0.00 67 1016.7
20260505003602 66 219 0.0 3.5 0.00 0.00 0.00 67 1016.6
20260505003402 66 217 0.9 3.5 0.00 0.00 0.00 67 1016.8
20260505003302 66 138 0.9 3.5 0.00 0.00 0.00 67 1016.7
20260505003202 67 341 0.0 2.6 0.00 0.00 0.00 67 1016.7
20260505003102 66 114 0.0 2.6 0.00 0.00 0.00 67 1016.6
20260505002902 67 167 0.0 2.6 0.00 0.00 0.00 66 1016.6
20260505002802 67 167 0.0 2.6 0.00 0.00 0.00 66 1016.8
20260505002602 67 157 1.7 2.6 0.00 0.00 0.00 67 1016.7
20260505002502 67 124 0.0 2.6 0.00 0.00 0.00 67 1016.7
20260505002402 67 218 0.0 3.5 0.00 0.00 0.00 67 1016.7
20260505002304 67 185 0.0 3.5 0.00 0.00 0.00 67 1016.8
20260505002202 67 179 0.9 3.5 0.00 0.00 0.00 67 1016.8
20260505002102 67 129 0.9 3.5 0.00 0.00 0.00 67 1016.8
20260505002002 67 191 0.9 3.5 0.00 0.00 0.00 67 1016.8
20260505001802 67 146 0.0 3.5 0.00 0.00 0.00 67 1016.8
20260505001702 67 150 1.7 3.5 0.00 0.00 0.00 66 1016.9
20260505001402 67 159 0.0 2.6 0.00 0.00 0.00 66 1016.8
20260505001302 67 156 0.0 3.5 0.00 0.00 0.00 66 1016.7
20260505001202 67 188 0.0 3.5 0.00 0.00 0.00 66 1016.8
20260505001103 67 151 2.6 3.5 0.00 0.00 0.00 66 1016.8
20260505001003 67 180 1.7 3.5 0.00 0.00 0.00 65 1016.7
20260505000903 67 139 0.9 3.5 0.00 0.00 0.00 65 1016.7
20260505000803 67 179 0.0 3.5 0.00 0.00 0.00 65 1016.7
20260505000703 67 175 0.9 3.5 0.00 0.00 0.00 65 1016.7
20260505000603 67 169 0.9 3.5 0.00 0.00 0.00 64 1016.7
20260505000503 67 122 0.9 3.5 0.00 0.00 0.00 64 1016.8
20260505000405 67 143 1.7 2.6 0.00 0.00 0.00 64 1016.7
20260505000303 67 180 1.7 2.6 0.00 0.00 0.00 64 1016.8
20260505000103 67 173 0.9 2.6 0.00 0.00 0.00 63 1016.8
20260505000006 67 181 0.9 2.6 0.00 0.00 0.00 63 1016.8
20260504235803 67 233 0.0 2.6 0.00 0.00 0.00 63 1016.7
20260504235703 67 162 0.0 2.6 0.00 0.00 0.00 63 1016.7
20260504235503 67 204 1.7 2.6 0.00 0.00 0.00 63 1016.7
20260504235403 67 136 0.9 2.6 0.00 0.00 0.00 63 1016.6
20260504235304 67 183 1.7 5.2 0.00 0.00 0.00 63 1016.7
20260504235203 67 105 0.0 5.2 0.00 0.00 0.00 63 1016.6
20260504235003 67 182 0.9 5.2 0.00 0.00 0.00 63 1016.6
20260504234903 68 224 0.9 5.2 0.00 0.00 0.00 63 1016.6
20260504234803 68 212 1.7 5.2 0.00 0.00 0.00 62 1016.6
20260504234603 68 139 2.6 5.2 0.00 0.00 0.00 62 1016.5
20260504234403 68 165 0.9 4.3 0.00 0.00 0.00 63 1016.4
20260504234303 68 210 0.9 4.3 0.00 0.00 0.00 62 1016.5
20260504234103 68 134 0.0 4.3 0.00 0.00 0.00 62 1016.5
20260504234003 68 205 0.9 4.3 0.00 0.00 0.00 62 1016.5
20260504233903 68 191 0.0 7.0 0.00 0.00 0.00 62 1016.5
20260504233803 68 178 0.0 7.0 0.00 0.00 0.00 62 1016.6
20260504233703 68 191 0.9 7.0 0.00 0.00 0.00 62 1016.5
20260504233603 68 166 0.0 7.0 0.00 0.00 0.00 62 1016.6
20260504233503 68 156 3.5 7.0 0.00 0.00 0.00 62 1016.5
20260504233403 68 178 0.0 7.0 0.00 0.00 0.00 61 1016.5
20260504233303 68 147 0.9 7.0 0.00 0.00 0.00 61 1016.5
20260504233203 68 189 0.9 7.0 0.00 0.00 0.00 61 1016.5
20260504233003 68 147 1.7 5.2 0.00 0.00 0.00 61 1016.5
20260504232903 68 106 1.7 5.2 0.00 0.00 0.00 61 1016.4
20260504232803 68 119 0.9 5.2 0.00 0.00 0.00 61 1016.5
20260504232703 68 188 0.9 5.2 0.00 0.00 0.00 61 1016.5
20260504232503 68 231 0.9 4.3 0.00 0.00 0.00 61 1016.5
20260504232403 68 167 0.0 4.3 0.00 0.00 0.00 61 1016.5
20260504232304 68 124 0.0 4.3 0.00 0.00 0.00 61 1016.4
20260504232203 69 142 0.9 4.3 0.00 0.00 0.00 61 1016.5
20260504232103 69 163 0.9 4.3 0.00 0.00 0.00 60 1016.5
20260504232003 69 191 0.9 4.3 0.00 0.00 0.00 60 1016.5
20260504231904 69 113 3.5 4.3 0.00 0.00 0.00 60 1016.5
20260504231803 69 179 0.9 4.3 0.00 0.00 0.00 60 1016.5
20260504231703 69 210 0.9 6.1 0.00 0.00 0.00 61 1016.5
20260504231203 69 167 0.0 6.1 0.00 0.00 0.00 61 1016.3
20260504231103 69 148 3.5 6.1 0.00 0.00 0.00 60 1016.4
20260504231003 69 174 0.9 6.1 0.00 0.00 0.00 60 1016.4
20260504230903 69 130 3.5 6.1 0.00 0.00 0.00 60 1016.4
20260504230803 69 128 0.9 6.1 0.00 0.00 0.00 59 1016.4
20260504230703 70 202 2.6 6.1 0.00 0.00 0.00 59 1016.4
20260504230503 70 215 0.9 5.2 0.00 0.00 0.00 59 1016.5
20260504230403 70 90 0.0 5.2 0.00 0.00 0.00 59 1016.4
20260504230303 70 160 2.6 5.2 0.00 0.00 0.00 59 1016.4
20260504230203 70 179 0.9 7.0 0.00 0.00 0.00 59 1016.4
20260504230005 70 199 2.6 7.0 0.00 0.00 0.00 59 1016.4
20260504225903 70 140 2.6 7.0 0.00 0.00 0.00 58 1016.4
20260504225804 70 126 1.7 7.0 0.00 0.00 0.00 59 1016.5
20260504225703 70 166 0.9 7.0 0.00 0.00 0.00 59 1016.4
20260504225603 70 145 0.0 7.0 0.00 0.00 0.00 59 1016.4
20260504225503 70 113 1.7 7.0 0.00 0.00 0.00 58 1016.4
20260504225403 70 86 2.6 7.0 0.00 0.00 0.00 57 1016.5
20260504225304 71 210 3.5 7.0 0.00 0.00 0.00 57 1016.4
20260504225203 71 106 2.6 5.2 0.00 0.00 0.00 57 1016.5
20260504225103 71 153 1.7 5.2 0.00 0.00 0.00 57 1016.4
20260504225003 71 167 1.7 5.2 0.00 0.00 0.00 57 1016.5
20260504224903 71 145 2.6 5.2 0.00 0.00 0.00 57 1016.5
20260504224803 71 209 0.9 11.3 0.00 0.00 0.00 57 1016.5
20260504224703 71 71 1.7 11.3 0.00 0.00 0.00 56 1016.5
20260504224603 71 187 3.5 11.3 0.00 0.00 0.00 56 1016.5
20260504224503 71 152 0.0 11.3 0.00 0.00 0.00 56 1016.5
20260504224403 71 197 0.9 11.3 0.00 0.00 0.00 56 1016.6
20260504224303 71 186 1.7 11.3 0.00 0.00 0.00 56 1016.6
20260504224204 71 163 0.9 11.3 0.00 0.00 0.00 55 1016.5
20260504224103 71 106 0.9 11.3 0.00 0.00 0.00 55 1016.4
20260504224003 71 108 7.0 7.8 0.00 0.00 0.00 55 1016.4
20260504223803 71 191 1.7 7.8 0.00 0.00 0.00 56 1016.4
20260504223703 71 200 2.6 7.8 0.00 0.00 0.00 56 1016.4
20260504223603 71 196 2.6 7.8 0.00 0.00 0.00 56 1016.4
20260504223503 71 190 2.6 7.8 0.00 0.00 0.00 56 1016.4
20260504223403 71 200 3.5 7.8 0.00 0.00 0.00 55 1016.5
20260504223304 71 175 3.5 9.6 0.00 0.00 0.00 55 1016.4
20260504223203 71 150 0.9 9.6 0.00 0.00 0.00 55 1016.5
20260504223103 71 177 1.7 9.6 0.00 0.00 0.00 56 1016.5
20260504223003 71 118 3.5 9.6 0.00 0.00 0.00 56 1016.5
20260504222903 71 236 6.1 9.6 0.00 0.00 0.00 56 1016.4
20260504222803 71 153 0.0 9.6 0.00 0.00 0.00 56 1016.4
20260504222703 71 148 1.7 9.6 0.00 0.00 0.00 56 1016.4
20260504222503 71 135 0.9 9.6 0.00 0.00 0.00 56 1016.3
20260504222403 71 102 3.5 7.8 0.00 0.00 0.00 56 1016.4
20260504222305 71 209 1.7 7.8 0.00 0.00 0.00 57 1016.4
20260504222203 71 179 2.6 7.8 0.00 0.00 0.00 57 1016.4
20260504222003 71 140 4.3 7.8 0.00 0.00 0.00 57 1016.3
20260504221803 71 186 5.2 7.8 0.00 0.00 0.00 57 1016.4
20260504221703 71 358 0.0 7.8 0.00 0.00 0.00 57 1016.4
20260504221603 71 111 5.2 7.8 0.00 0.00 0.00 57 1016.3
20260504221503 71 206 1.7 7.8 0.00 0.00 0.00 57 1016.3
20260504221403 71 136 7.8 7.8 0.00 0.00 0.00 57 1016.4
20260504221303 71 203 0.9 7.0 0.00 0.00 0.00 57 1016.4
20260504221203 71 160 2.6 7.0 0.00 0.00 0.00 56 1016.4
20260504221103 71 163 3.5 7.0 0.00 0.00 0.00 56 1016.4
20260504221004 72 106 5.2 7.0 0.00 0.00 0.00 57 1016.4
20260504220903 72 145 3.5 7.0 0.00 0.00 0.00 57 1016.4
20260504220803 72 183 2.6 7.8 0.00 0.00 0.00 57 1016.4
20260504220703 72 196 7.0 7.8 0.00 0.00 0.00 58 1016.4
20260504220603 72 149 3.5 7.8 0.00 0.00 0.00 57 1016.3
20260504220503 72 155 1.7 7.8 0.00 0.00 0.00 57 1016.3
20260504220403 72 200 2.6 7.8 0.00 0.00 0.00 58 1016.4
20260504220303 72 160 3.5 7.8 0.00 0.00 0.00 57 1016.5
20260504220203 72 262 2.6 7.8 0.00 0.00 0.00 57 1016.4
20260504220006 72 135 0.9 7.8 0.00 0.00 0.00 57 1016.5
20260504215903 72 215 1.7 6.1 0.00 0.00 0.00 57 1016.5
20260504215803 72 94 1.7 6.1 0.00 0.00 0.00 58 1016.5
20260504215703 72 86 0.9 6.1 0.00 0.00 0.00 57 1016.5
20260504215603 72 202 0.9 6.1 0.00 0.00 0.00 57 1016.5
20260504215403 72 179 1.7 7.0 0.00 0.00 0.00 58 1016.5
20260504215304 72 172 0.0 7.0 0.00 0.00 0.00 57 1016.4
20260504215203 72 212 0.0 7.0 0.00 0.00 0.00 57 1016.4
20260504215103 72 191 2.6 7.0 0.00 0.00 0.00 57 1016.6
20260504214903 72 166 4.3 7.0 0.00 0.00 0.00 56 1016.5
20260504214803 72 203 1.7 7.0 0.00 0.00 0.00 57 1016.4
20260504214703 72 162 3.5 8.7 0.00 0.00 0.00 57 1016.4
20260504214603 72 149 2.6 8.7 0.00 0.00 0.00 57 1016.4
20260504214503 72 129 3.5 9.6 0.00 0.00 0.00 57 1016.4
20260504214403 72 191 5.2 9.6 0.00 0.00 0.00 56 1016.3
20260504214303 72 179 0.9 9.6 0.00 0.00 0.00 57 1016.4
20260504214103 72 214 1.7 9.6 0.00 0.00 0.00 56 1016.3
20260504214003 72 94 3.5 9.6 0.00 0.00 0.00 55 1016.4
20260504213803 72 203 3.5 9.6 0.00 0.00 0.00 55 1016.5
20260504213703 72 221 0.9 9.6 0.00 0.00 0.00 55 1016.4
20260504213603 72 180 0.9 7.0 0.00 0.00 0.00 56 1016.5
20260504213504 72 105 0.9 7.0 0.00 0.00 0.00 55 1016.6
20260504213403 72 194 2.6 7.0 0.00 0.00 0.00 56 1016.5
20260504213303 72 131 2.6 7.0 0.00 0.00 0.00 56 1016.6
20260504213103 72 172 2.6 7.0 0.00 0.00 0.00 56 1016.7
20260504213003 72 177 0.9 7.0 0.00 0.00 0.00 56 1016.6
20260504212903 72 155 1.7 7.0 0.00 0.00 0.00 55 1016.6
20260504212803 72 75 2.6 7.0 0.00 0.00 0.00 55 1016.6
20260504212703 72 101 2.6 7.8 0.00 0.00 0.00 55 1016.7
20260504212603 72 241 0.9 7.8 0.00 0.00 0.00 55 1016.7
20260504212304 72 164 4.3 7.8 0.00 0.00 0.00 54 1016.6
20260504212203 72 144 1.7 7.8 0.00 0.00 0.00 54 1016.6
20260504212003 72 259 3.5 8.7 0.00 0.00 0.00 54 1016.6
20260504211803 72 146 2.6 8.7 0.00 0.00 0.00 54 1016.6
20260504211703 72 214 5.2 8.7 0.00 0.00 0.00 54 1016.6
20260504211603 72 191 0.9 8.7 0.00 0.00 0.00 54 1016.6
20260504211503 72 221 4.3 8.7 0.00 0.00 0.00 54 1016.5
20260504211403 72 109 0.9 8.7 0.00 0.00 0.00 53 1016.5
20260504211203 73 117 2.6 8.7 0.00 0.00 0.00 54 1016.5
20260504211103 73 203 1.7 7.8 0.00 0.00 0.00 53 1016.5
20260504211003 73 96 1.7 7.8 0.00 0.00 0.00 53 1016.6
20260504210902 73 184 0.9 7.8 0.00 0.00 0.00 52 1016.6
20260504210803 73 126 1.7 7.8 0.00 0.00 0.00 52 1016.6
20260504210603 73 150 1.7 8.7 0.00 0.00 0.00 53 1016.6
20260504210503 73 100 1.7 8.7 0.00 0.00 0.00 53 1016.8
20260504210403 73 6 2.6 8.7 0.00 0.00 0.00 52 1016.6
20260504210203 73 216 0.9 8.7 0.00 0.00 0.00 53 1016.6
20260504210006 73 170 3.5 8.7 0.00 0.00 0.00 53 1016.6
20260504205903 73 240 0.9 7.8 0.00 0.00 0.00 54 1016.7
20260504205803 73 193 1.7 7.8 0.00 0.00 0.00 54 1016.6
20260504205703 73 179 2.6 7.8 0.00 0.00 0.00 54 1016.7
20260504205503 73 161 0.9 7.8 0.00 0.00 0.00 52 1016.7
20260504205403 73 203 1.7 7.8 0.00 0.00 0.00 53 1016.6
20260504205304 73 184 7.8 7.8 0.00 0.00 0.00 54 1016.7
20260504205103 73 250 3.5 7.0 0.00 0.00 0.00 56 1016.6
20260504205003 73 172 0.9 7.0 0.00 0.00 0.00 55 1016.6
20260504204903 73 120 1.7 7.0 0.00 0.00 0.00 55 1016.6
20260504204803 73 171 0.9 7.0 0.00 0.00 0.00 54 1016.6
20260504204703 73 167 2.6 7.0 0.00 0.00 0.00 54 1016.6
20260504204603 73 121 1.7 7.0 0.00 0.00 0.00 54 1016.6
20260504204304 73 141 5.2 6.1 0.00 0.00 0.00 53 1016.7
20260504204103 73 148 1.7 8.7 0.00 0.00 0.00 53 1016.6
20260504203803 73 199 0.9 8.7 0.00 0.00 0.00 53 1016.6
20260504203603 73 240 3.5 9.6 0.00 0.00 0.00 54 1016.6
20260504203503 73 213 2.6 9.6 0.00 0.00 0.00 54 1016.6
20260504203403 73 105 3.5 9.6 0.00 0.00 0.00 54 1016.6
20260504203303 72 155 2.6 9.6 0.00 0.00 0.00 56 1016.6
20260504203203 72 109 7.0 11.3 0.00 0.00 0.00 57 1016.5
20260504203103 72 207 0.9 11.3 0.00 0.00 0.00 56 1016.5
20260504203004 72 212 1.7 11.3 0.00 0.00 0.00 55 1016.6
20260504202903 72 179 3.5 11.3 0.00 0.00 0.00 55 1016.7
20260504202803 72 122 1.7 11.3 0.00 0.00 0.00 54 1016.5
20260504202602 73 142 3.5 11.3 0.00 0.00 0.00 53 1016.7
20260504202403 73 207 1.7 11.3 0.00 0.00 0.00 54 1016.7
20260504202304 73 150 5.2 9.6 0.00 0.00 0.00 54 1016.8
20260504202203 73 178 1.7 9.6 0.00 0.00 0.00 54 1016.8
20260504202103 73 136 3.5 9.6 0.00 0.00 0.00 54 1016.9
20260504202003 73 135 1.7 9.6 0.00 0.00 0.00 53 1016.8
20260504201903 73 184 5.2 9.6 0.00 0.00 0.00 53 1016.8
20260504201803 73 34 2.6 9.6 0.00 0.00 0.00 54 1016.8
20260504201603 73 161 1.7 9.6 0.00 0.00 0.00 56 1016.8
20260504201503 73 165 0.0 9.6 0.00 0.00 0.00 55 1016.8
20260504201402 73 79 5.2 9.6 0.00 0.00 0.00 55 1016.8
20260504201303 73 206 1.7 9.6 0.00 0.00 0.00 54 1016.8
20260504201203 73 91 1.7 8.7 0.00 0.00 0.00 54 1016.9
20260504201103 73 200 2.6 8.7 0.00 0.00 0.00 53 1016.8
20260504201003 73 124 1.7 8.7 0.00 0.00 0.00 52 1016.8
20260504200804 73 169 0.9 8.7 0.00 0.00 0.00 52 1016.8